Starlink 5873

operational
NORAD ID: 56490 Int'l Des: 2023-064 Owner: SPXS Country: US Constellation: starlink
LEOCIRCULAR

Über Starlink 5873

Beschreibung wird geladen...

Live-Position

3D-Globus wird geladen...

Nächste Überflüge

Höhenverlauf

Altitude vs Time

uPlot chart will show altitude changes over time

Zweizeiliger Elementsatz

1 56490U 23064AU 25353.61023426 .00000187 00000-0 23489-4 0 9997
2 56490 70.0012 306.5128 0002960 270.9612 89.1208 14.98329340144230
Epoch: 19. Dez. 2025 • Age: 10 hours

Aktueller Status

Höhe 575.9 km
Geschwindigkeit 7.57 km/s
Subsatellitenpunkt -9.94°S, 23.58°E
Startdatum 10. Mai 2023
Alter 2.6 years
Typ internet

Technische Details

Klassifizierung Payload
Masse 305.00 kg
Trockenmasse 290.00 kg
Gesamtmasse 305.00 kg
Länge 0.20 m
Durchmesser 2.80 m
Spannweite 9.00 m
Form Box + pan
Hersteller SPXS
Bus-Typ Starlink
Phasenstatus In Orbit
Besitzer/Staat SPXS/US

Große Konstellationen

Loading constellations...